| time (UTC) | temp F | wind direction | speed MPH | gust MPH | rain 1hr in | rain 24hr in | rain mn in | humidity % | barometer mb |
| 20260831153059 | 84 | 52 | 1.0 | 7.0 | 0.00 | 0.00 | 0.00 | 87 | 1018.5 |
| 20260831151553 | 84 | 74 | 0.0 | 5.0 | 0.00 | 0.00 | 0.00 | 88 | 1018.7 |
| 20260831150107 | 84 | 78 | 1.0 | 8.0 | 0.00 | 0.00 | 0.00 | 88 | 1018.6 |
| 20260831144600 | 83 | 0 | 1.0 | 5.0 | 0.00 | 0.00 | 0.00 | 89 | 1018.5 |
| 20260831143527 | 82 | 30 | 1.0 | 5.0 | 0.00 | 0.00 | 0.00 | 89 | 1018.5 |
| 20260831143417 | 82 | 30 | 1.0 | 5.0 | 0.00 | 0.00 | 0.00 | 89 | 1018.5 |
| 20260831143318 | 82 | 30 | 1.0 | 5.0 | 0.00 | 0.00 | 0.00 | 89 | 1018.5 |
| 20260831143220 | 82 | 30 | 1.0 | 5.0 | 0.00 | 0.00 | 0.00 | 89 | 1018.5 |
| 20260831141557 | 82 | 61 | 1.0 | 6.0 | 0.00 | 0.00 | 0.00 | 90 | 1018.3 |
| 20260831140054 | 81 | 74 | 1.0 | 8.0 | 0.00 | 0.00 | 0.00 | 91 | 1018.1 |
| 20260831134604 | 80 | 0 | 0.0 | 5.0 | 0.00 | 0.00 | 0.00 | 91 | 1018.0 |
| 20260831133059 | 79 | 0 | 0.0 | 5.0 | 0.00 | 0.00 | 0.00 | 92 | 1017.9 |
| 20260831131600 | 79 | 5 | 0.0 | 4.0 | 0.00 | 0.00 | 0.00 | 92 | 1017.8 |
| 20260831130113 | 78 | 41 | 1.0 | 3.0 | 0.00 | 0.00 | 0.00 | 91 | 1017.7 |
| 20260831124603 | 77 | 45 | 0.0 | 2.0 | 0.00 | 0.00 | 0.00 | 91 | 1017.6 |
| 20260831123100 | 77 | 64 | 0.0 | 3.0 | 0.00 | 0.00 | 0.00 | 91 | 1017.6 |
| 20260831121558 | 77 | 98 | 0.0 | 4.0 | 0.00 | 0.00 | 0.00 | 91 | 1017.5 |
| 20260831120056 | 76 | 111 | 0.0 | 2.0 | 0.00 | 0.00 | 0.00 | 90 | 1017.4 |
| 20260831114600 | 77 | 0 | 0.0 | 0.0 | 0.00 | 0.00 | 0.00 | 91 | 1017.3 |
| 20260831113114 | 76 | 0 | 0.0 | 0.0 | 0.00 | 0.00 | 0.00 | 90 | 1017.2 |
| 20260831111551 | 76 | 0 | 0.0 | 0.0 | 0.00 | 0.00 | 0.00 | 90 | 1016.9 |
| 20260831110100 | 77 | 0 | 0.0 | 0.0 | 0.00 | 0.00 | 0.00 | 90 | 1016.8 |
| 20260831104601 | 77 | 0 | 0.0 | 0.0 | 0.00 | 0.00 | 0.00 | 90 | 1016.8 |
| 20260831103058 | 77 | 0 | 0.0 | 0.0 | 0.00 | 0.00 | 0.00 | 91 | 1016.6 |
| 20260831101555 | 77 | 0 | 0.0 | 0.0 | 0.00 | 0.00 | 0.00 | 90 | 1016.7 |
| 20260831100048 | 77 | 0 | 0.0 | 0.0 | 0.00 | 0.00 | 0.00 | 89 | 1016.5 |
| 20260831094600 | 77 | 0 | 0.0 | 0.0 | 0.00 | 0.00 | 0.00 | 89 | 1016.6 |
| 20260831093057 | 77 | 0 | 0.0 | 0.0 | 0.00 | 0.00 | 0.00 | 90 | 1016.5 |
| 20260831091552 | 77 | 0 | 0.0 | 0.0 | 0.00 | 0.00 | 0.00 | 89 | 1016.5 |
| 20260831090107 | 77 | 0 | 0.0 | 0.0 | 0.00 | 0.00 | 0.00 | 88 | 1016.5 |
| 20260831084602 | 77 | 0 | 0.0 | 0.0 | 0.00 | 0.00 | 0.00 | 88 | 1016.4 |
| 20260831083057 | 78 | 0 | 0.0 | 0.0 | 0.00 | 0.00 | 0.00 | 88 | 1016.5 |
| 20260831081609 | 78 | 0 | 0.0 | 0.0 | 0.00 | 0.00 | 0.00 | 88 | 1016.5 |
| 20260831080049 | 78 | 0 | 0.0 | 0.0 | 0.00 | 0.00 | 0.00 | 88 | 1016.5 |
| 20260831074600 | 78 | 0 | 0.0 | 0.0 | 0.00 | 0.00 | 0.00 | 88 | 1016.6 |
| 20260831073051 | 78 | 113 | 0.0 | 1.0 | 0.00 | 0.00 | 0.00 | 88 | 1016.7 |
| 20260831071602 | 78 | 0 | 0.0 | 0.0 | 0.00 | 0.00 | 0.00 | 85 | 1016.8 |
| 20260831064553 | 78 | 0 | 0.0 | 0.0 | 0.00 | 0.00 | 0.00 | 85 | 1017.0 |
| 20260831063049 | 79 | 0 | 0.0 | 0.0 | 0.00 | 0.00 | 0.00 | 85 | 1017.2 |
| 20260831061605 | 79 | 0 | 0.0 | 0.0 | 0.00 | 0.00 | 0.00 | 84 | 1017.2 |
| 20260831060059 | 79 | 0 | 0.0 | 0.0 | 0.00 | 0.00 | 0.00 | 84 | 1017.3 |
| 20260831054553 | 79 | 0 | 0.0 | 0.0 | 0.00 | 0.00 | 0.00 | 84 | 1017.3 |
| 20260831053050 | 80 | 0 | 0.0 | 1.0 | 0.00 | 0.00 | 0.00 | 84 | 1017.2 |
| 20260831051608 | 80 | 0 | 0.0 | 1.0 | 0.00 | 0.00 | 0.00 | 84 | 1017.3 |
| 20260831050100 | 80 | 0 | 0.0 | 1.0 | 0.00 | 0.00 | 0.00 | 84 | 1017.2 |
| 20260831044556 | 80 | 0 | 0.0 | 1.0 | 0.00 | 0.00 | 0.00 | 84 | 1017.3 |
| 20260831043059 | 81 | 0 | 0.0 | 0.0 | 0.00 | 0.00 | 0.00 | 83 | 1017.5 |
| 20260831041600 | 81 | 0 | 0.0 | 1.0 | 0.00 | 0.00 | 0.00 | 84 | 1017.5 |
| 20260831040058 | 81 | 0 | 0.0 | 2.0 | 0.00 | 0.00 | 0.00 | 84 | 1017.6 |
| 20260831034559 | 82 | 0 | 0.0 | 2.0 | 0.00 | 0.00 | 0.00 | 83 | 1017.5 |
| 20260831033048 | 82 | 0 | 0.0 | 2.0 | 0.00 | 0.00 | 0.00 | 83 | 1017.6 |
| 20260831031555 | 82 | 0 | 0.0 | 3.0 | 0.00 | 0.00 | 0.00 | 83 | 1017.6 |
| 20260831030050 | 82 | 0 | 0.0 | 1.0 | 0.00 | 0.00 | 0.00 | 82 | 1017.4 |
| 20260831024547 | 82 | 0 | 0.0 | 2.0 | 0.00 | 0.00 | 0.00 | 81 | 1017.4 |
| 20260831023103 | 83 | 0 | 0.0 | 5.0 | 0.00 | 0.00 | 0.00 | 80 | 1017.2 |
| 20260831021551 | 83 | 115 | 0.0 | 4.0 | 0.00 | 0.00 | 0.00 | 80 | 1016.8 |
| 20260831020054 | 83 | 0 | 0.0 | 2.0 | 0.00 | 0.00 | 0.00 | 79 | 1016.7 |
| 20260831014547 | 84 | 0 | 0.0 | 1.0 | 0.00 | 0.00 | 0.00 | 79 | 1016.5 |
| 20260831013108 | 84 | 0 | 0.0 | 1.0 | 0.00 | 0.00 | 0.00 | 78 | 1016.1 |
| 20260831011552 | 84 | 102 | 0.0 | 2.0 | 0.00 | 0.00 | 0.00 | 77 | 1016.0 |
| 20260831010058 | 85 | 0 | 0.0 | 3.0 | 0.00 | 0.00 | 0.00 | 76 | 1015.7 |
| 20260831004555 | 85 | 0 | 0.0 | 2.0 | 0.00 | 0.00 | 0.00 | 75 | 1015.9 |
| 20260831003104 | 86 | 0 | 0.0 | 4.0 | 0.00 | 0.00 | 0.00 | 75 | 1015.8 |
| 20260831001600 | 87 | 336 | 0.0 | 2.0 | 0.00 | 0.00 | 0.00 | 75 | 1015.9 |
| 20260831000054 | 87 | 101 | 0.0 | 3.0 | 0.00 | 0.00 | 0.00 | 75 | 1015.8 |
| 20260830234554 | 88 | 108 | 1.0 | 5.0 | 0.00 | 0.00 | 0.00 | 75 | 1015.4 |
| 20260830233103 | 89 | 0 | 1.0 | 5.0 | 0.00 | 0.00 | 0.00 | 73 | 1015.4 |
| 20260830231558 | 90 | 0 | 0.0 | 5.0 | 0.00 | 0.00 | 0.00 | 70 | 1015.5 |
| 20260830230052 | 92 | 0 | 0.0 | 4.0 | 0.00 | 0.00 | 0.00 | 65 | 1015.5 |
| 20260830224600 | 93 | 46 | 1.0 | 6.0 | 0.00 | 0.00 | 0.00 | 63 | 1015.5 |
| 20260830223110 | 93 | 59 | 1.0 | 5.0 | 0.00 | 0.00 | 0.00 | 63 | 1015.3 |
| 20260830221553 | 93 | 0 | 0.0 | 3.0 | 0.00 | 0.00 | 0.00 | 63 | 1015.3 |
| 20260830214615 | 94 | 0 | 0.0 | 3.0 | 0.00 | 0.00 | 0.00 | 63 | 1015.4 |
| 20260830213049 | 94 | 0 | 0.0 | 3.0 | 0.00 | 0.00 | 0.00 | 62 | 1015.5 |
| 20260830211611 | 94 | 0 | 0.0 | 5.0 | 0.00 | 0.00 | 0.00 | 64 | 1015.6 |
| 20260830210117 | 93 | 53 | 0.0 | 4.0 | 0.00 | 0.00 | 0.00 | 64 | 1015.6 |
| 20260830204600 | 93 | 38 | 0.0 | 4.0 | 0.00 | 0.00 | 0.00 | 64 | 1015.7 |
| 20260830203053 | 94 | 0 | 1.0 | 8.0 | 0.00 | 0.00 | 0.00 | 63 | 1015.9 |
| 20260830201605 | 94 | 82 | 1.0 | 4.0 | 0.00 | 0.00 | 0.00 | 64 | 1016.3 |
| 20260830200104 | 94 | 0 | 0.0 | 5.0 | 0.00 | 0.00 | 0.00 | 65 | 1016.4 |
| 20260830194556 | 93 | 114 | 0.0 | 4.0 | 0.00 | 0.00 | 0.00 | 66 | 1016.5 |
| 20260830193102 | 93 | 296 | 0.0 | 5.0 | 0.00 | 0.00 | 0.00 | 65 | 1016.7 |
| 20260830191559 | 93 | 0 | 0.0 | 5.0 | 0.00 | 0.00 | 0.00 | 68 | 1017.0 |
| 20260830190126 | 93 | 62 | 1.0 | 4.0 | 0.00 | 0.00 | 0.00 | 67 | 1017.2 |
| 20260830184608 | 92 | 0 | 1.0 | 5.0 | 0.00 | 0.00 | 0.00 | 70 | 1017.4 |
| 20260830183059 | 91 | 71 | 0.0 | 5.0 | 0.00 | 0.00 | 0.00 | 71 | 1017.4 |
| 20260830181559 | 92 | 73 | 0.0 | 4.0 | 0.00 | 0.00 | 0.00 | 70 | 1017.7 |
| 20260830174603 | 91 | 335 | 0.0 | 4.0 | 0.00 | 0.00 | 0.00 | 71 | 1018.1 |
| 20260830173055 | 91 | 38 | 0.0 | 5.0 | 0.00 | 0.00 | 0.00 | 74 | 1018.3 |
| 20260830171559 | 90 | 0 | 0.0 | 4.0 | 0.00 | 0.00 | 0.00 | 77 | 1018.6 |
| 20260830170053 | 90 | 55 | 0.0 | 4.0 | 0.00 | 0.00 | 0.00 | 78 | 1018.6 |
| 20260830164604 | 89 | 0 | 0.0 | 6.0 | 0.00 | 0.00 | 0.00 | 80 | 1018.8 |
| 20260830163051 | 88 | 86 | 1.0 | 4.0 | 0.00 | 0.00 | 0.00 | 80 | 1018.9 |
| 20260830161605 | 88 | 96 | 1.0 | 4.0 | 0.00 | 0.00 | 0.00 | 81 | 1019.1 |
| 20260830154557 | 86 | 0 | 1.0 | 4.0 | 0.00 | 0.00 | 0.00 | 83 | 1018.9 |